Tracking 19562 objects as of 25-Mar-2019
HD Live streaming from Space Station
objects crossing your sky now

COSMOS 1876

Track COSMOS 1876 now!
10-day predictions
COSMOS 1876 is classified as:


NORAD ID: 18335
Int'l Code: 1987-074B
Perigee: 1,415.5 km
Apogee: 1,422.1 km
Inclination: 82.6 °
Period: 114.0 minutes
Semi major axis: 7789 km
RCS: 1.1447 m2 (large)
Launch date: September 7, 1987
Source: Commonwealth of Independent States (former USSR) (CIS)
Launch site: PLESETSK MISSILE AND SPACE COMPLEX (PKMTR)
aabbcc
Your satellite tracking list
Your tracking list is empty




NASA's NSSDC Master Catalog

Two Line Element Set (TLE):
1 18335U 87074B   19083.88883439 +.00000035 +00000-0 +13694-3 0  9992
2 18335 082.5754 210.7683 0004181 000.1666 116.7655 12.62739186453720
Source of the keplerian elements: AFSPC